owner,sensor,date,latitude,longitude,vertical_datum,wind_speed,wind_to_direction,wind_speed_of_gust,qcFlag 
ADCP,ioos:station:wmo:42364:1,2017-06-01T00:30:00Z,29.0600,-88.0900,122.0,8.6,54.0,99.0,'11111222,11111222,11144222' 
ADCP,ioos:station:wmo:42364:1,2017-06-01T01:30:00Z,29.0600,-88.0900,122.0,6.4,53.0,99.0,'11111222,11111222,11144222' 
ADCP,ioos:station:wmo:42364:1,2017-06-01T02:30:00Z,29.0600,-88.0900,122.0,5.3,53.0,99.0,'11111222,11111222,11144222' 
ADCP,ioos:station:wmo:42364:1,2017-06-01T03:30:00Z,29.0600,-88.0900,122.0,4.1,52.0,99.0,'11111222,11111222,11144222' 
ADCP,ioos:station:wmo:42364:1,2017-06-01T04:30:00Z,29.0600,-88.0900,122.0,4.1,101.0,99.0,'11111222,11111222,11144222' 
ADCP,ioos:station:wmo:42364:1,2017-06-01T05:30:00Z,29.0600,-88.0900,122.0,5.7,122.0,99.0,'11111222,11111222,11144222' 
ADCP,ioos:station:wmo:42364:1,2017-06-01T06:30:00Z,29.0600,-88.0900,122.0,6.4,141.0,99.0,'11111222,11111222,11144222' 
ADCP,ioos:station:wmo:42364:1,2017-06-01T07:30:00Z,29.0600,-88.0900,122.0,6.1,158.0,99.0,'11111222,11111222,11144222' 
ADCP,ioos:station:wmo:42364:1,2017-06-01T08:30:00Z,29.0600,-88.0900,122.0,5.0,161.0,99.0,'11111222,11111222,11144222' 
ADCP,ioos:station:wmo:42364:1,2017-06-01T10:30:00Z,29.0600,-88.0900,122.0,4.0,164.0,99.0,'11111222,11111222,11144222' 
ADCP,ioos:station:wmo:42364:1,2017-06-01T11:30:00Z,29.0600,-88.0900,122.0,3.6,151.0,99.0,'11111222,11111222,11144222' 
ADCP,ioos:station:wmo:42364:1,2017-06-01T12:30:00Z,29.0600,-88.0900,122.0,4.7,150.0,99.0,'11111222,11111222,11144222' 
ADCP,ioos:station:wmo:42364:1,2017-06-01T13:30:00Z,29.0600,-88.0900,122.0,3.6,152.0,99.0,'11111222,11111222,11144222' 
ADCP,ioos:station:wmo:42364:1,2017-06-01T14:30:00Z,29.0600,-88.0900,122.0,3.5,124.0,99.0,'11111222,11111222,11144222' 
ADCP,ioos:station:wmo:42364:1,2017-06-01T15:30:00Z,29.0600,-88.0900,122.0,3.4,128.0,99.0,'11111222,11111222,11144222' 
ADCP,ioos:station:wmo:42364:1,2017-06-01T16:30:00Z,29.0600,-88.0900,122.0,2.9,108.0,99.0,'11111222,11111222,11144222' 
ADCP,ioos:station:wmo:42364:1,2017-06-01T17:30:00Z,29.0600,-88.0900,122.0,3.1,98.0,99.0,'11111222,11111222,11144222' 
ADCP,ioos:station:wmo:42364:1,2017-06-01T18:30:00Z,29.0600,-88.0900,122.0,3.8,109.0,99.0,'11111222,11111222,11144222' 
ADCP,ioos:station:wmo:42364:1,2017-06-01T19:30:00Z,29.0600,-88.0900,122.0,4.7,89.0,99.0,'11111222,11111222,11144222' 
ADCP,ioos:station:wmo:42364:1,2017-06-01T20:30:00Z,29.0600,-88.0900,122.0,4.5,104.0,99.0,'11111222,11111222,11144222' 
ADCP,ioos:station:wmo:42364:1,2017-06-01T21:30:00Z,29.0600,-88.0900,122.0,9.1,143.0,99.0,'11111222,11111222,11144222' 
ADCP,ioos:station:wmo:42364:1,2017-06-01T22:30:00Z,29.0600,-88.0900,122.0,7.5,180.0,99.0,'11111222,11111222,11144222' 
ADCP,ioos:station:wmo:42364:1,2017-06-01T23:30:00Z,29.0600,-88.0900,122.0,2.8,141.0,99.0,'11111222,11111222,11144222' 
ADCP,ioos:station:wmo:42364:1,2017-06-02T00:30:00Z,29.0600,-88.0900,122.0,2.7,125.0,99.0,'11111222,11111222,11144222' 
ADCP,ioos:station:wmo:42364:1,2017-06-02T01:30:00Z,29.0600,-88.0900,122.0,2.1,107.0,99.0,'11111222,11111222,11144222' 
ADCP,ioos:station:wmo:42364:1,2017-06-02T02:30:00Z,29.0600,-88.0900,122.0,3.3,140.0,99.0,'11111222,11111222,11144222' 
ADCP,ioos:station:wmo:42364:1,2017-06-02T03:30:00Z,29.0600,-88.0900,122.0,4.0,158.0,99.0,'11111222,11111222,11144222' 
ADCP,ioos:station:wmo:42364:1,2017-06-02T04:30:00Z,29.0600,-88.0900,122.0,4.9,143.0,99.0,'11111222,11111222,11144222' 
ADCP,ioos:station:wmo:42364:1,2017-06-02T05:30:00Z,29.0600,-88.0900,122.0,6.7,138.0,99.0,'11111222,11111222,11144222' 
ADCP,ioos:station:wmo:42364:1,2017-06-02T06:30:00Z,29.0600,-88.0900,122.0,7.5,146.0,99.0,'11111222,11111222,11144222' 
ADCP,ioos:station:wmo:42364:1,2017-06-02T07:30:00Z,29.0600,-88.0900,122.0,7.0,157.0,99.0,'11111222,11111222,11144222' 
ADCP,ioos:station:wmo:42364:1,2017-06-02T08:30:00Z,29.0600,-88.0900,122.0,7.6,152.0,99.0,'11111222,11111222,11144222' 
ADCP,ioos:station:wmo:42364:1,2017-06-02T09:30:00Z,29.0600,-88.0900,122.0,7.0,154.0,99.0,'11111222,11111222,11144222' 
ADCP,ioos:station:wmo:42364:1,2017-06-02T10:30:00Z,29.0600,-88.0900,122.0,3.0,106.0,99.0,'11111222,11111222,11144222' 
ADCP,ioos:station:wmo:42364:1,2017-06-02T11:30:00Z,29.0600,-88.0900,122.0,5.1,122.0,99.0,'11111222,11111222,11144222' 
ADCP,ioos:station:wmo:42364:1,2017-06-02T12:30:00Z,29.0600,-88.0900,122.0,5.9,119.0,99.0,'11111222,11111222,11144222' 
ADCP,ioos:station:wmo:42364:1,2017-06-02T13:30:00Z,29.0600,-88.0900,122.0,6.1,122.0,99.0,'11111222,11111222,11144222' 
ADCP,ioos:station:wmo:42364:1,2017-06-02T14:30:00Z,29.0600,-88.0900,122.0,6.1,124.0,99.0,'11111222,11111222,11144222' 
ADCP,ioos:station:wmo:42364:1,2017-06-02T15:30:00Z,29.0600,-88.0900,122.0,6.4,127.0,99.0,'11111222,11111222,11144222' 
ADCP,ioos:station:wmo:42364:1,2017-06-02T16:30:00Z,29.0600,-88.0900,122.0,5.9,118.0,99.0,'11111222,11111222,11144222' 
ADCP,ioos:station:wmo:42364:1,2017-06-02T17:30:00Z,29.0600,-88.0900,122.0,9.6,176.0,99.0,'11111222,11111222,11144222' 
ADCP,ioos:station:wmo:42364:1,2017-06-02T18:30:00Z,29.0600,-88.0900,122.0,7.2,209.0,99.0,'11111222,11111222,11144222' 
ADCP,ioos:station:wmo:42364:1,2017-06-02T19:30:00Z,29.0600,-88.0900,122.0,5.0,194.0,99.0,'11111222,11111222,11144222' 
ADCP,ioos:station:wmo:42364:1,2017-06-02T20:30:00Z,29.0600,-88.0900,122.0,3.5,174.0,99.0,'11111222,11111222,11144222' 
ADCP,ioos:station:wmo:42364:1,2017-06-02T21:30:00Z,29.0600,-88.0900,122.0,3.7,169.0,99.0,'11111222,11111222,11144222' 
ADCP,ioos:station:wmo:42364:1,2017-06-02T22:30:00Z,29.0600,-88.0900,122.0,4.3,183.0,99.0,'11111222,11111222,11144222' 
ADCP,ioos:station:wmo:42364:1,2017-06-02T23:30:00Z,29.0600,-88.0900,122.0,5.0,181.0,99.0,'11111222,11111222,11144222' 
ADCP,ioos:station:wmo:42364:1,2017-06-03T00:30:00Z,29.0600,-88.0900,122.0,5.2,195.0,99.0,'11111222,11111222,11144222' 
ADCP,ioos:station:wmo:42364:1,2017-06-03T01:30:00Z,29.0600,-88.0900,122.0,5.5,210.0,99.0,'11111222,11111222,11144222' 
ADCP,ioos:station:wmo:42364:1,2017-06-03T02:30:00Z,29.0600,-88.0900,122.0,2.8,180.0,99.0,'11111222,11111222,11144222' 
ADCP,ioos:station:wmo:42364:1,2017-06-03T03:30:00Z,29.0600,-88.0900,122.0,7.4,163.0,99.0,'11111222,11111222,11144222' 
ADCP,ioos:station:wmo:42364:1,2017-06-03T04:30:00Z,29.0600,-88.0900,122.0,6.7,166.0,99.0,'11111222,11111222,11144222' 
ADCP,ioos:station:wmo:42364:1,2017-06-03T05:30:00Z,29.0600,-88.0900,122.0,5.9,147.0,99.0,'11111222,11111222,11144222' 
ADCP,ioos:station:wmo:42364:1,2017-06-03T06:30:00Z,29.0600,-88.0900,122.0,6.5,162.0,99.0,'11111222,11111222,11144222' 
ADCP,ioos:station:wmo:42364:1,2017-06-03T07:30:00Z,29.0600,-88.0900,122.0,9.1,173.0,99.0,'11111222,11111222,11144222' 
ADCP,ioos:station:wmo:42364:1,2017-06-03T08:30:00Z,29.0600,-88.0900,122.0,7.4,168.0,99.0,'11111222,11111222,11144222' 
ADCP,ioos:station:wmo:42364:1,2017-06-03T09:30:00Z,29.0600,-88.0900,122.0,6.1,158.0,99.0,'11111222,11111222,11144222' 
ADCP,ioos:station:wmo:42364:1,2017-06-03T10:30:00Z,29.0600,-88.0900,122.0,6.6,176.0,99.0,'11111222,11111222,11144222' 
ADCP,ioos:station:wmo:42364:1,2017-06-03T11:30:00Z,29.0600,-88.0900,122.0,8.5,191.0,99.0,'11111222,11111222,11144222' 
ADCP,ioos:station:wmo:42364:1,2017-06-03T12:30:00Z,29.0600,-88.0900,122.0,9.2,195.0,99.0,'11111222,11111222,11144222' 
ADCP,ioos:station:wmo:42364:1,2017-06-03T13:30:00Z,29.0600,-88.0900,122.0,5.5,167.0,99.0,'11111222,11111222,11144222' 
ADCP,ioos:station:wmo:42364:1,2017-06-03T14:30:00Z,29.0600,-88.0900,122.0,4.7,133.0,99.0,'11111222,11111222,11144222' 
ADCP,ioos:station:wmo:42364:1,2017-06-03T16:30:00Z,29.0600,-88.0900,122.0,5.7,116.0,99.0,'11111222,11111222,11144222' 
ADCP,ioos:station:wmo:42364:1,2017-06-03T17:30:00Z,29.0600,-88.0900,122.0,6.3,106.0,99.0,'11111222,11111222,11144222' 
ADCP,ioos:station:wmo:42364:1,2017-06-03T18:30:00Z,29.0600,-88.0900,122.0,6.1,104.0,99.0,'11111222,11111222,11144222' 
ADCP,ioos:station:wmo:42364:1,2017-06-03T19:30:00Z,29.0600,-88.0900,122.0,6.0,122.0,99.0,'11111222,11111222,11144222' 
ADCP,ioos:station:wmo:42364:1,2017-06-03T20:30:00Z,29.0600,-88.0900,122.0,5.9,127.0,99.0,'11111222,11111222,11144222' 
ADCP,ioos:station:wmo:42364:1,2017-06-03T21:30:00Z,29.0600,-88.0900,122.0,5.3,126.0,99.0,'11111222,11111222,11144222' 
ADCP,ioos:station:wmo:42364:1,2017-06-03T22:30:00Z,29.0600,-88.0900,122.0,5.0,121.0,99.0,'11111222,11111222,11144222' 
ADCP,ioos:station:wmo:42364:1,2017-06-03T23:30:00Z,29.0600,-88.0900,122.0,5.2,120.0,99.0,'11111222,11111222,11144222' 
ADCP,ioos:station:wmo:42364:1,2017-06-04T00:30:00Z,29.0600,-88.0900,122.0,4.9,132.0,99.0,'11111222,11111222,11144222' 
ADCP,ioos:station:wmo:42364:1,2017-06-04T01:30:00Z,29.0600,-88.0900,122.0,4.4,157.0,99.0,'11111222,11111222,11144222' 
ADCP,ioos:station:wmo:42364:1,2017-06-04T02:30:00Z,29.0600,-88.0900,122.0,4.7,235.0,99.0,'11111222,11111222,11144222' 
ADCP,ioos:station:wmo:42364:1,2017-06-04T03:30:00Z,29.0600,-88.0900,122.0,7.2,240.0,99.0,'11111222,11111222,11144222' 
ADCP,ioos:station:wmo:42364:1,2017-06-04T04:30:00Z,29.0600,-88.0900,122.0,5.5,245.0,99.0,'11111222,11111222,11144222' 
ADCP,ioos:station:wmo:42364:1,2017-06-04T05:30:00Z,29.0600,-88.0900,122.0,2.5,253.0,99.0,'11111222,11111222,11144222' 
ADCP,ioos:station:wmo:42364:1,2017-06-04T06:30:00Z,29.0600,-88.0900,122.0,0.5,359.0,99.0,'11111222,11111222,11144222' 
ADCP,ioos:station:wmo:42364:1,2017-06-04T07:30:00Z,29.0600,-88.0900,122.0,2.1,26.0,99.0,'11111222,11111222,11144222' 
ADCP,ioos:station:wmo:42364:1,2017-06-04T08:30:00Z,29.0600,-88.0900,122.0,2.7,60.0,99.0,'11111222,11111222,11144222' 
ADCP,ioos:station:wmo:42364:1,2017-06-04T09:30:00Z,29.0600,-88.0900,122.0,2.8,77.0,99.0,'11111222,11111222,11144222' 
ADCP,ioos:station:wmo:42364:1,2017-06-04T10:30:00Z,29.0600,-88.0900,122.0,2.6,70.0,99.0,'11111222,11111222,11144222' 
ADCP,ioos:station:wmo:42364:1,2017-06-04T11:30:00Z,29.0600,-88.0900,122.0,2.8,88.0,99.0,'11111222,11111222,11144222' 
ADCP,ioos:station:wmo:42364:1,2017-06-04T12:30:00Z,29.0600,-88.0900,122.0,2.9,103.0,99.0,'11111222,11111222,11144222' 
ADCP,ioos:station:wmo:42364:1,2017-06-04T13:30:00Z,29.0600,-88.0900,122.0,3.4,99.0,99.0,'11111222,11111222,11144222' 
ADCP,ioos:station:wmo:42364:1,2017-06-04T14:30:00Z,29.0600,-88.0900,122.0,4.3,90.0,99.0,'11111222,11111222,11144222' 
ADCP,ioos:station:wmo:42364:1,2017-06-04T15:30:00Z,29.0600,-88.0900,122.0,4.2,103.0,99.0,'11111222,11111222,11144222' 
ADCP,ioos:station:wmo:42364:1,2017-06-04T16:30:00Z,29.0600,-88.0900,122.0,4.8,107.0,99.0,'11111222,11111222,11144222' 
ADCP,ioos:station:wmo:42364:1,2017-06-04T17:30:00Z,29.0600,-88.0900,122.0,5.1,115.0,99.0,'11111222,11111222,11144222' 
ADCP,ioos:station:wmo:42364:1,2017-06-04T18:30:00Z,29.0600,-88.0900,122.0,5.0,118.0,99.0,'11111222,11111222,11144222' 
ADCP,ioos:station:wmo:42364:1,2017-06-04T19:30:00Z,29.0600,-88.0900,122.0,4.4,135.0,99.0,'11111222,11111222,11144222' 
ADCP,ioos:station:wmo:42364:1,2017-06-04T20:30:00Z,29.0600,-88.0900,122.0,5.0,139.0,99.0,'11111222,11111222,11144222' 
ADCP,ioos:station:wmo:42364:1,2017-06-04T21:30:00Z,29.0600,-88.0900,122.0,5.5,143.0,99.0,'11111222,11111222,11144222' 
ADCP,ioos:station:wmo:42364:1,2017-06-04T22:30:00Z,29.0600,-88.0900,122.0,6.2,154.0,99.0,'11111222,11111222,11144222' 
ADCP,ioos:station:wmo:42364:1,2017-06-04T23:30:00Z,29.0600,-88.0900,122.0,7.6,163.0,99.0,'11111222,11111222,11144222' 
ADCP,ioos:station:wmo:42364:1,2017-06-05T00:30:00Z,29.0600,-88.0900,122.0,6.9,167.0,99.0,'11111222,11111222,11144222' 
ADCP,ioos:station:wmo:42364:1,2017-06-05T01:30:00Z,29.0600,-88.0900,122.0,6.5,170.0,99.0,'11111222,11111222,11144222' 
ADCP,ioos:station:wmo:42364:1,2017-06-05T02:30:00Z,29.0600,-88.0900,122.0,6.1,166.0,99.0,'11111222,11111222,11144222' 
ADCP,ioos:station:wmo:42364:1,2017-06-05T03:30:00Z,29.0600,-88.0900,122.0,5.4,156.0,99.0,'11111222,11111222,11144222' 
ADCP,ioos:station:wmo:42364:1,2017-06-05T04:30:00Z,29.0600,-88.0900,122.0,6.0,167.0,99.0,'11111222,11111222,11144222' 
ADCP,ioos:station:wmo:42364:1,2017-06-05T05:30:00Z,29.0600,-88.0900,122.0,7.2,180.0,99.0,'11111222,11111222,11144222' 
ADCP,ioos:station:wmo:42364:1,2017-06-05T06:30:00Z,29.0600,-88.0900,122.0,6.5,189.0,99.0,'11111222,11111222,11144222' 
ADCP,ioos:station:wmo:42364:1,2017-06-05T07:30:00Z,29.0600,-88.0900,122.0,6.7,218.0,99.0,'11111222,11111222,11144222' 
ADCP,ioos:station:wmo:42364:1,2017-06-05T08:30:00Z,29.0600,-88.0900,122.0,5.6,201.0,99.0,'11111222,11111222,11144222' 
ADCP,ioos:station:wmo:42364:1,2017-06-05T09:30:00Z,29.0600,-88.0900,122.0,5.3,192.0,99.0,'11111222,11111222,11144222' 
ADCP,ioos:station:wmo:42364:1,2017-06-05T10:30:00Z,29.0600,-88.0900,122.0,5.3,190.0,99.0,'11111222,11111222,11144222' 
ADCP,ioos:station:wmo:42364:1,2017-06-05T11:30:00Z,29.0600,-88.0900,122.0,5.2,175.0,99.0,'11111222,11111222,11144222' 
ADCP,ioos:station:wmo:42364:1,2017-06-05T12:30:00Z,29.0600,-88.0900,122.0,5.3,174.0,99.0,'11111222,11111222,11144222' 
ADCP,ioos:station:wmo:42364:1,2017-06-05T13:30:00Z,29.0600,-88.0900,122.0,6.1,176.0,99.0,'11111222,11111222,11144222' 
ADCP,ioos:station:wmo:42364:1,2017-06-05T14:30:00Z,29.0600,-88.0900,122.0,6.6,163.0,99.0,'11111222,11111222,11144222' 
ADCP,ioos:station:wmo:42364:1,2017-06-05T15:30:00Z,29.0600,-88.0900,122.0,7.4,163.0,99.0,'11111222,11111222,11144222' 
ADCP,ioos:station:wmo:42364:1,2017-06-05T16:30:00Z,29.0600,-88.0900,122.0,7.9,176.0,99.0,'11111222,11111222,11144222' 
ADCP,ioos:station:wmo:42364:1,2017-06-05T17:30:00Z,29.0600,-88.0900,122.0,7.8,177.0,99.0,'11111222,11111222,11144222' 
ADCP,ioos:station:wmo:42364:1,2017-06-05T18:30:00Z,29.0600,-88.0900,122.0,8.4,183.0,99.0,'11111222,11111222,11144222' 
ADCP,ioos:station:wmo:42364:1,2017-06-05T19:30:00Z,29.0600,-88.0900,122.0,8.1,186.0,99.0,'11111222,11111222,11144222' 
ADCP,ioos:station:wmo:42364:1,2017-06-05T20:30:00Z,29.0600,-88.0900,122.0,7.6,181.0,99.0,'11111222,11111222,11144222' 
ADCP,ioos:station:wmo:42364:1,2017-06-05T21:30:00Z,29.0600,-88.0900,122.0,7.0,172.0,99.0,'11111222,11111222,11144222' 
ADCP,ioos:station:wmo:42364:1,2017-06-05T22:30:00Z,29.0600,-88.0900,122.0,7.4,170.0,99.0,'11111222,11111222,11144222' 
ADCP,ioos:station:wmo:42364:1,2017-06-05T23:30:00Z,29.0600,-88.0900,122.0,7.7,184.0,99.0,'11111222,11111222,11144222' 
ADCP,ioos:station:wmo:42364:1,2017-06-06T00:30:00Z,29.0600,-88.0900,122.0,7.2,194.0,99.0,'11111222,11111222,11144222' 
ADCP,ioos:station:wmo:42364:1,2017-06-06T01:30:00Z,29.0600,-88.0900,122.0,5.2,186.0,99.0,'11111222,11111222,11144222' 
ADCP,ioos:station:wmo:42364:1,2017-06-06T02:30:00Z,29.0600,-88.0900,122.0,3.8,171.0,99.0,'11111222,11111222,11144222' 
ADCP,ioos:station:wmo:42364:1,2017-06-06T03:30:00Z,29.0600,-88.0900,122.0,4.2,145.0,99.0,'11111222,11111222,11144222' 
ADCP,ioos:station:wmo:42364:1,2017-06-06T04:30:00Z,29.0600,-88.0900,122.0,7.2,150.0,99.0,'11111222,11111222,11144222' 
ADCP,ioos:station:wmo:42364:1,2017-06-06T05:30:00Z,29.0600,-88.0900,122.0,9.7,176.0,99.0,'11111222,11111222,11144222' 
ADCP,ioos:station:wmo:42364:1,2017-06-06T06:30:00Z,29.0600,-88.0900,122.0,7.8,191.0,99.0,'11111222,11111222,11144222' 
ADCP,ioos:station:wmo:42364:1,2017-06-06T07:30:00Z,29.0600,-88.0900,122.0,6.1,186.0,99.0,'11111222,11111222,11144222' 
ADCP,ioos:station:wmo:42364:1,2017-06-06T08:30:00Z,29.0600,-88.0900,122.0,4.4,143.0,99.0,'11111222,11111222,11144222' 
ADCP,ioos:station:wmo:42364:1,2017-06-06T09:30:00Z,29.0600,-88.0900,122.0,4.7,69.0,99.0,'11111222,11111222,11144222' 
ADCP,ioos:station:wmo:42364:1,2017-06-06T10:30:00Z,29.0600,-88.0900,122.0,5.7,133.0,99.0,'11111222,11111222,11144222' 
ADCP,ioos:station:wmo:42364:1,2017-06-06T11:30:00Z,29.0600,-88.0900,122.0,7.3,139.0,99.0,'11111222,11111222,11144222' 
ADCP,ioos:station:wmo:42364:1,2017-06-06T12:30:00Z,29.0600,-88.0900,122.0,6.9,201.0,99.0,'11111222,11111222,11144222' 
ADCP,ioos:station:wmo:42364:1,2017-06-06T13:30:00Z,29.0600,-88.0900,122.0,5.8,207.0,99.0,'11111222,11111222,11144222' 
ADCP,ioos:station:wmo:42364:1,2017-06-06T14:30:00Z,29.0600,-88.0900,122.0,5.9,196.0,99.0,'11111222,11111222,11144222' 
ADCP,ioos:station:wmo:42364:1,2017-06-06T15:30:00Z,29.0600,-88.0900,122.0,4.9,220.0,99.0,'11111222,11111222,11144222' 
ADCP,ioos:station:wmo:42364:1,2017-06-06T16:30:00Z,29.0600,-88.0900,122.0,4.9,215.0,99.0,'11111222,11111222,11144222' 
ADCP,ioos:station:wmo:42364:1,2017-06-06T17:30:00Z,29.0600,-88.0900,122.0,4.3,231.0,99.0,'11111222,11111222,11144222' 
ADCP,ioos:station:wmo:42364:1,2017-06-06T18:30:00Z,29.0600,-88.0900,122.0,4.4,241.0,99.0,'11111222,11111222,11144222' 
ADCP,ioos:station:wmo:42364:1,2017-06-06T19:30:00Z,29.0600,-88.0900,122.0,3.1,248.0,99.0,'11111222,11111222,11144222' 
ADCP,ioos:station:wmo:42364:1,2017-06-06T20:30:00Z,29.0600,-88.0900,122.0,3.4,259.0,99.0,'11111222,11111222,11144222' 
ADCP,ioos:station:wmo:42364:1,2017-06-06T21:30:00Z,29.0600,-88.0900,122.0,5.5,249.0,99.0,'11111222,11111222,11144222' 
ADCP,ioos:station:wmo:42364:1,2017-06-06T22:30:00Z,29.0600,-88.0900,122.0,7.0,243.0,99.0,'11111222,11111222,11144222' 
ADCP,ioos:station:wmo:42364:1,2017-06-06T23:30:00Z,29.0600,-88.0900,122.0,7.1,246.0,99.0,'11111222,11111222,11144222' 
ADCP,ioos:station:wmo:42364:1,2017-06-07T00:30:00Z,29.0600,-88.0900,122.0,7.8,246.0,99.0,'11111222,11111222,11144222' 
ADCP,ioos:station:wmo:42364:1,2017-06-07T01:30:00Z,29.0600,-88.0900,122.0,5.0,264.0,99.0,'11111222,11111222,11144222' 
ADCP,ioos:station:wmo:42364:1,2017-06-07T02:30:00Z,29.0600,-88.0900,122.0,0.3,348.0,99.0,'11111222,11111222,11144222' 
ADCP,ioos:station:wmo:42364:1,2017-06-07T03:30:00Z,29.0600,-88.0900,122.0,0.0,0.0,99.0,'11111222,11111222,11144222' 
ADCP,ioos:station:wmo:42364:1,2017-06-07T04:30:00Z,29.0600,-88.0900,122.0,0.0,359.0,99.0,'11111222,11111222,11144222' 
ADCP,ioos:station:wmo:42364:1,2017-06-07T05:30:00Z,29.0600,-88.0900,122.0,1.0,358.0,99.0,'11111222,11111222,11144222' 
ADCP,ioos:station:wmo:42364:1,2017-06-07T06:30:00Z,29.0600,-88.0900,122.0,2.7,9.0,99.0,'11111222,11111222,11144222' 
ADCP,ioos:station:wmo:42364:1,2017-06-07T07:30:00Z,29.0600,-88.0900,122.0,0.4,6.0,99.0,'11111222,11111222,11144222' 
ADCP,ioos:station:wmo:42364:1,2017-06-07T08:30:00Z,29.0600,-88.0900,122.0,1.2,288.0,99.0,'11111222,11111222,11144222' 
ADCP,ioos:station:wmo:42364:1,2017-06-07T09:30:00Z,29.0600,-88.0900,122.0,2.6,256.0,99.0,'11111222,11111222,11144222' 
ADCP,ioos:station:wmo:42364:1,2017-06-07T10:30:00Z,29.0600,-88.0900,122.0,1.5,308.0,99.0,'11111222,11111222,11144222' 
ADCP,ioos:station:wmo:42364:1,2017-06-07T11:30:00Z,29.0600,-88.0900,122.0,0.6,356.0,99.0,'11111222,11111222,11144222' 
ADCP,ioos:station:wmo:42364:1,2017-06-07T12:30:00Z,29.0600,-88.0900,122.0,1.7,342.0,99.0,'11111222,11111222,11144222' 
ADCP,ioos:station:wmo:42364:1,2017-06-07T13:30:00Z,29.0600,-88.0900,122.0,0.3,354.0,99.0,'11111222,11111222,11144222' 
ADCP,ioos:station:wmo:42364:1,2017-06-07T14:30:00Z,29.0600,-88.0900,122.0,0.9,349.0,99.0,'11111222,11111222,11144222' 
ADCP,ioos:station:wmo:42364:1,2017-06-07T15:30:00Z,29.0600,-88.0900,122.0,2.9,348.0,99.0,'11111222,11111222,11144222' 
ADCP,ioos:station:wmo:42364:1,2017-06-07T16:30:00Z,29.0600,-88.0900,122.0,0.6,346.0,99.0,'11111222,11111222,11144222' 
ADCP,ioos:station:wmo:42364:1,2017-06-07T17:30:00Z,29.0600,-88.0900,122.0,2.2,338.0,99.0,'11111222,11111222,11144222' 
ADCP,ioos:station:wmo:42364:1,2017-06-07T18:30:00Z,29.0600,-88.0900,122.0,3.8,340.0,99.0,'11111222,11111222,11144222' 
ADCP,ioos:station:wmo:42364:1,2017-06-07T19:30:00Z,29.0600,-88.0900,122.0,1.6,341.0,99.0,'11111222,11111222,11144222' 
ADCP,ioos:station:wmo:42364:1,2017-06-07T20:30:00Z,29.0600,-88.0900,122.0,0.0,0.0,99.0,'11111222,11111222,11144222' 
ADCP,ioos:station:wmo:42364:1,2017-06-07T21:30:00Z,29.0600,-88.0900,122.0,0.0,0.0,99.0,'11111222,11111222,11144222' 
ADCP,ioos:station:wmo:42364:1,2017-06-07T22:30:00Z,29.0600,-88.0900,122.0,0.0,0.0,99.0,'11111222,11111222,11144222' 
ADCP,ioos:station:wmo:42364:1,2017-06-07T23:30:00Z,29.0600,-88.0900,122.0,0.0,0.0,99.0,'11111222,11111222,11144222' 
ADCP,ioos:station:wmo:42364:1,2017-06-08T00:30:00Z,29.0600,-88.0900,122.0,0.0,0.0,99.0,'11111222,11111222,11144222' 
ADCP,ioos:station:wmo:42364:1,2017-06-08T01:30:00Z,29.0600,-88.0900,122.0,0.0,0.0,99.0,'11111222,11111222,11144222' 
ADCP,ioos:station:wmo:42364:1,2017-06-08T02:30:00Z,29.0600,-88.0900,122.0,3.5,358.0,99.0,'11111222,11111222,11144222' 
ADCP,ioos:station:wmo:42364:1,2017-06-08T03:30:00Z,29.0600,-88.0900,122.0,7.6,29.0,99.0,'11111222,11111222,11144222' 
ADCP,ioos:station:wmo:42364:1,2017-06-08T04:30:00Z,29.0600,-88.0900,122.0,6.0,40.0,99.0,'11111222,11111222,11144222' 
ADCP,ioos:station:wmo:42364:1,2017-06-08T05:30:00Z,29.0600,-88.0900,122.0,6.0,33.0,99.0,'11111222,11111222,11144222' 
ADCP,ioos:station:wmo:42364:1,2017-06-08T06:30:00Z,29.0600,-88.0900,122.0,6.9,35.0,99.0,'11111222,11111222,11144222' 
ADCP,ioos:station:wmo:42364:1,2017-06-08T07:30:00Z,29.0600,-88.0900,122.0,8.4,41.0,99.0,'11111222,11111222,11144222' 
ADCP,ioos:station:wmo:42364:1,2017-06-08T08:30:00Z,29.0600,-88.0900,122.0,7.2,42.0,99.0,'11111222,11111222,11144222' 
ADCP,ioos:station:wmo:42364:1,2017-06-08T09:30:00Z,29.0600,-88.0900,122.0,6.9,43.0,99.0,'11111222,11111222,11144222' 
ADCP,ioos:station:wmo:42364:1,2017-06-08T10:30:00Z,29.0600,-88.0900,122.0,6.2,50.0,99.0,'11111222,11111222,11144222' 
ADCP,ioos:station:wmo:42364:1,2017-06-08T11:30:00Z,29.0600,-88.0900,122.0,5.2,46.0,99.0,'11111222,11111222,11144222' 
ADCP,ioos:station:wmo:42364:1,2017-06-08T12:30:00Z,29.0600,-88.0900,122.0,4.9,44.0,99.0,'11111222,11111222,11144222' 
ADCP,ioos:station:wmo:42364:1,2017-06-08T13:30:00Z,29.0600,-88.0900,122.0,4.1,44.0,99.0,'11111222,11111222,11144222' 
ADCP,ioos:station:wmo:42364:1,2017-06-08T14:30:00Z,29.0600,-88.0900,122.0,3.4,36.0,99.0,'11111222,11111222,11144222' 
ADCP,ioos:station:wmo:42364:1,2017-06-08T15:30:00Z,29.0600,-88.0900,122.0,3.1,30.0,99.0,'11111222,11111222,11144222' 
ADCP,ioos:station:wmo:42364:1,2017-06-08T16:30:00Z,29.0600,-88.0900,122.0,2.7,28.0,99.0,'11111222,11111222,11144222' 
ADCP,ioos:station:wmo:42364:1,2017-06-08T17:30:00Z,29.0600,-88.0900,122.0,2.5,27.0,99.0,'11111222,11111222,11144222' 
ADCP,ioos:station:wmo:42364:1,2017-06-08T18:30:00Z,29.0600,-88.0900,122.0,2.0,10.0,99.0,'11111222,11111222,11144222' 
ADCP,ioos:station:wmo:42364:1,2017-06-08T19:30:00Z,29.0600,-88.0900,122.0,2.0,8.0,99.0,'11111222,11111222,11144222' 
ADCP,ioos:station:wmo:42364:1,2017-06-08T20:30:00Z,29.0600,-88.0900,122.0,2.4,4.0,99.0,'11111222,11111222,11144222' 
ADCP,ioos:station:wmo:42364:1,2017-06-08T21:30:00Z,29.0600,-88.0900,122.0,2.6,7.0,99.0,'11111222,11111222,11144222' 
ADCP,ioos:station:wmo:42364:1,2017-06-08T22:30:00Z,29.0600,-88.0900,122.0,2.4,11.0,99.0,'11111222,11111222,11144222' 
ADCP,ioos:station:wmo:42364:1,2017-06-08T23:30:00Z,29.0600,-88.0900,122.0,1.5,10.0,99.0,'11111222,11111222,11144222' 
ADCP,ioos:station:wmo:42364:1,2017-06-09T00:30:00Z,29.0600,-88.0900,122.0,0.7,9.0,99.0,'11111222,11111222,11144222' 
ADCP,ioos:station:wmo:42364:1,2017-06-09T01:30:00Z,29.0600,-88.0900,122.0,0.1,360.0,99.0,'11111222,11144222,11144222' 
ADCP,ioos:station:wmo:42364:1,2017-06-09T02:30:00Z,29.0600,-88.0900,122.0,0.0,0.0,99.0,'11111222,11111222,11144222' 
ADCP,ioos:station:wmo:42364:1,2017-06-09T03:30:00Z,29.0600,-88.0900,122.0,0.2,343.0,99.0,'11111222,11111222,11144222' 
ADCP,ioos:station:wmo:42364:1,2017-06-09T04:30:00Z,29.0600,-88.0900,122.0,0.3,334.0,99.0,'11111222,11111222,11144222' 
ADCP,ioos:station:wmo:42364:1,2017-06-09T05:30:00Z,29.0600,-88.0900,122.0,0.8,282.0,99.0,'11111222,11111222,11144222' 
ADCP,ioos:station:wmo:42364:1,2017-06-09T06:30:00Z,29.0600,-88.0900,122.0,0.8,293.0,99.0,'11111222,11111222,11144222' 
ADCP,ioos:station:wmo:42364:1,2017-06-09T07:30:00Z,29.0600,-88.0900,122.0,2.0,212.0,99.0,'11111222,11111222,11144222' 
ADCP,ioos:station:wmo:42364:1,2017-06-09T08:30:00Z,29.0600,-88.0900,122.0,2.3,213.0,99.0,'11111222,11111222,11144222' 
ADCP,ioos:station:wmo:42364:1,2017-06-09T09:30:00Z,29.0600,-88.0900,122.0,2.7,214.0,99.0,'11111222,11111222,11144222' 
ADCP,ioos:station:wmo:42364:1,2017-06-09T10:30:00Z,29.0600,-88.0900,122.0,2.6,227.0,99.0,'11111222,11111222,11144222' 